KE9LZ Weather Reports


time (UTC)temp
F
wind
direction
speed
knots
gust
knots
rain 1hr
in
rain 24hr
in
rain mn
in
humidity
%
barometer
mb
20260905132004 69 10 2.6 6.1 0.00 0.04 0.04 99 1020.4
20260905131003 69 22 2.6 4.3 0.01 0.04 0.04 99 1020.2
20260905125003 69 85 1.7 2.6 0.02 0.04 0.04 99 1020.0
20260905124004 68 93 1.7 2.6 0.02 0.03 0.03 99 1019.9
20260905123004 68 33 1.7 4.3 0.02 0.03 0.03 99 1019.8
20260905122003 68 145 0.9 4.3 0.02 0.03 0.03 99 1019.9
20260905121003 68 74 1.7 4.3 0.02 0.03 0.03 99 1019.6
20260905120004 69 41 1.7 7.8 0.02 0.02 0.02 99 1019.4
20260905115004 69 91 0.9 6.1 0.01 0.02 0.02 99 1019.2
20260905114004 69 23 4.3 7.0 0.01 0.01 0.01 99 1019.2
20260905113003 69 348 1.7 5.2 0.00 0.01 0.01 99 1019.1
20260905112004 69 14 4.3 8.7 0.00 0.02 0.01 99 1018.8
20260905105004 69 6 4.3 7.0 0.00 0.08 0.00 99 1018.7
20260905102003 69 87 2.6 5.2 0.00 0.40 0.00 99 1018.7
20260905101004 69 42 4.3 7.0 0.00 0.41 0.00 99 1018.8
20260905095003 69 2 3.5 8.7 0.00 0.53 0.00 99 1018.7
20260905094004 69 28 2.6 7.0 0.00 0.59 0.00 99 1018.4
20260905093003 69 49 4.3 7.8 0.00 0.67 0.00 99 1018.4
20260905092004 69 18 4.3 8.7 0.00 0.69 0.00 99 1018.5
20260905091003 69 8 1.7 7.8 0.00 0.71 0.00 99 1018.4
20260905090003 69 0 4.3 7.0 0.00 0.75 0.00 99 1018.4
20260905085004 70 28 4.3 10.4 0.00 0.78 0.00 98 1018.6
20260905082004 71 21 4.3 7.0 0.00 0.85 0.00 97 1018.3
20260905081004 71 39 2.6 5.2 0.00 0.85 0.00 97 1018.1
20260905080004 71 36 1.7 4.3 0.00 0.85 0.00 97 1017.9
20260905075004 71 98 0.9 4.3 0.00 0.85 0.00 97 1017.8
20260905074003 71 42 1.7 5.2 0.00 0.85 0.00 97 1017.7
20260905073004 71 75 2.6 4.3 0.00 0.85 0.00 97 1018.0
20260905072003 71 78 1.7 2.6 0.00 0.86 0.00 97 1018.0
20260905071003 71 33 1.7 1.7 0.00 0.87 0.00 97 1018.1
20260905070004 71 74 0.9 2.6 0.00 0.89 0.00 97 1017.9
20260905065004 71 36 0.9 4.3 0.00 1.03 0.00 97 1018.0
20260905064004 71 33 2.6 4.3 0.00 1.03 0.00 96 1018.2
20260905063004 71 84 0.9 1.7 0.00 1.03 0.00 96 1017.9
20260905062003 71 78 0.9 4.3 0.00 1.03 0.00 96 1018.2
20260905060004 71 75 1.7 4.3 0.00 1.03 0.00 96 1018.2
20260905054003 71 38 2.6 5.2 0.00 1.03 0.00 96 1018.3
20260905053004 71 88 0.9 5.2 0.00 1.03 0.00 97 1018.2
20260905052004 72 28 1.7 4.3 0.00 1.03 0.00 97 1018.2
20260905050003 72 45 1.7 4.3 0.00 1.03 0.00 97 1018.2
20260905045004 72 41 1.7 2.6 0.00 1.03 1.03 96 1018.1
20260905044004 72 48 1.7 2.6 0.00 1.03 1.03 97 1018.3
20260905043003 72 37 2.6 4.3 0.00 1.04 1.03 97 1018.4
20260905042004 72 92 1.7 4.3 0.00 1.04 1.03 96 1018.1
20260905041004 72 81 1.7 4.3 0.00 1.04 1.03 96 1018.3
20260905040004 72 35 1.7 4.3 0.00 1.04 1.03 96 1018.2
20260905034004 72 67 1.7 2.6 0.00 1.04 1.03 96 1018.3
20260905033003 72 37 0.9 2.6 0.00 1.04 1.03 97 1018.1
20260905031004 72 96 1.7 4.3 0.00 1.05 1.03 96 1018.3
20260905024004 73 76 2.6 4.3 0.00 1.10 1.03 96 1017.8
20260905023004 73 61 1.7 4.3 0.00 1.11 1.03 95 1018.1
20260905022004 73 34 2.6 4.3 0.00 1.12 1.03 95 1018.0
20260905021004 73 81 1.7 5.2 0.00 1.12 1.03 95 1017.9
20260905020004 73 70 1.7 4.3 0.00 1.12 1.03 95 1018.0
20260905014004 73 63 1.7 4.3 0.00 1.12 1.03 95 1017.9
20260905013004 73 50 0.9 1.7 0.00 1.12 1.03 95 1017.7
20260905012004 73 65 0.9 2.6 0.00 1.12 1.03 95 1017.7
20260905011003 73 84 0.9 2.6 0.00 1.12 1.03 95 1017.6
20260905010004 73 74 0.9 1.7 0.00 1.12 1.03 94 1017.5
20260905004003 73 64 1.7 2.6 0.00 1.12 1.03 94 1017.5
20260905003003 73 73 2.6 4.3 0.00 1.12 1.03 94 1017.5
20260905000004 74 86 2.6 6.1 0.00 1.12 1.03 92 1017.4
20260904235004 74 88 1.7 4.3 0.00 1.12 1.03 92 1017.4
20260904234004 74 113 1.7 7.0 0.00 1.12 1.03 92 1017.3
20260904233004 74 77 4.3 7.0 0.00 1.12 1.03 91 1017.1
20260904232004 75 108 1.7 8.7 0.00 1.12 1.03 90 1017.2
20260904231004 75 88 1.7 6.1 0.00 1.12 1.03 89 1017.1
20260904230004 75 84 1.7 4.3 0.00 1.12 1.03 88 1017.0
20260904225003 76 89 1.7 7.0 0.00 1.12 1.03 88 1016.9
20260904223003 76 75 1.7 5.2 0.00 1.12 1.03 87 1016.4
20260904222004 77 95 2.6 6.1 0.00 1.12 1.03 88 1016.5
20260904221003 77 93 2.6 6.1 0.00 1.12 1.03 88 1016.3
20260904220004 77 105 0.9 5.2 0.00 1.12 1.03 88 1016.2
20260904215004 78 62 1.7 4.3 0.00 1.12 1.03 87 1016.3
20260904214004 78 13 2.6 6.1 0.00 1.12 1.03 88 1016.3
20260904213004 78 19 2.6 6.1 0.00 1.12 1.03 87 1015.9
20260904211003 79 23 2.6 6.1 0.00 1.12 1.03 86 1015.8
20260904210004 79 11 3.5 6.1 0.00 1.12 1.03 84 1015.8
20260904205003 80 19 1.7 6.1 0.00 1.12 1.03 83 1015.7
20260904204003 81 70 1.7 7.0 0.00 1.12 1.03 82 1015.8
20260904203004 82 46 1.7 2.6 0.00 1.12 1.03 80 1015.6
20260904202003 83 1 0.9 5.2 0.00 1.12 1.03 79 1015.8
20260904201003 84 291 0.9 2.6 0.00 1.12 1.03 77 1015.7
20260904200004 84 264 1.7 2.6 0.00 1.12 1.03 76 1015.7
20260904195004 83 338 0.9 4.3 0.00 1.12 1.03 78 1016.0
20260904192004 83 191 1.7 4.3 0.00 1.12 1.03 78 1016.2
20260904191004 82 190 2.6 5.2 0.00 1.12 1.03 78 1016.2
20260904190004 83 202 0.9 8.7 0.00 1.12 1.03 77 1016.3
20260904183003 81 210 3.5 5.2 0.00 1.12 1.03 80 1016.3
20260904182004 80 208 4.3 7.8 0.00 1.12 1.03 82 1016.5
20260904181003 80 162 2.6 6.1 0.00 1.12 1.03 81 1016.5
20260904180004 81 243 3.5 6.1 0.00 1.12 1.03 80 1016.3
20260904175004 80 240 4.3 7.8 0.00 1.12 1.03 81 1016.5
20260904173004 79 186 4.3 7.8 0.00 1.12 1.03 82 1016.6
20260904172004 78 247 1.7 7.0 0.00 1.12 1.03 83 1016.9
20260904171004 78 264 3.5 7.8 0.00 1.12 1.03 83 1016.9
20260904170003 78 271 2.6 5.2 0.00 1.12 1.03 85 1016.9
20260904164004 76 121 1.7 5.2 0.00 1.12 1.03 86 1016.8
20260904162003 75 205 0.9 5.2 0.00 1.12 1.03 88 1017.1
20260904161004 74 207 2.6 4.3 0.00 1.12 1.03 88 1016.9
20260904160003 74 200 2.6 4.3 0.00 1.12 1.03 89 1017.1
20260904155004 74 195 2.6 6.1 0.00 1.15 1.03 89 1016.9
20260904154004 72 178 3.5 7.0 0.00 1.34 1.03 92 1017.2
20260904153004 72 181 1.7 6.1 0.00 1.39 1.03 93 1017.0
20260904152004 71 191 2.6 7.8 0.00 1.39 1.03 94 1017.1
20260904151004 71 121 1.7 4.3 0.00 1.43 1.03 95 1017.2
20260904150003 70 155 2.6 6.1 0.00 1.53 1.03 96 1017.1
20260904145003 70 163 1.7 6.1 0.00 1.59 1.03 98 1017.1
20260904144004 69 185 3.5 5.2 0.00 1.59 1.03 99 1017.4
20260904143004 69 183 1.7 6.1 0.00 1.59 1.03 99 1017.2
20260904142004 68 203 1.7 5.2 0.00 1.59 1.03 99 1017.3
20260904140004 68 303 1.7 2.6 0.00 1.59 1.03 99 1016.9
20260904135003 68 280 0.9 4.3 0.00 1.59 1.03 99 1016.5
20260904134004 68 177 1.7 7.0 0.00 1.59 1.03 99 1017.0
20260904133003 68 182 2.6 10.4 0.00 1.59 1.03 99 1017.5